#datetime,building,power
2024-01-13T00:00:00,sdl,4.12
2024-01-13T00:01:00,sdl,4.17
2024-01-13T00:02:00,sdl,3.92
2024-01-13T00:03:00,sdl,3.95
2024-01-13T00:04:00,sdl,3.93
2024-01-13T00:05:00,sdl,3.82
2024-01-13T00:06:00,sdl,3.96
2024-01-13T00:07:00,sdl,7.60
2024-01-13T00:08:00,sdl,7.55
2024-01-13T00:09:00,sdl,7.93
2024-01-13T00:10:00,sdl,7.55
2024-01-13T00:11:00,sdl,7.64
2024-01-13T00:12:00,sdl,6.48
2024-01-13T00:13:00,sdl,6.30
2024-01-13T00:14:00,sdl,6.13
2024-01-13T00:15:00,sdl,6.18
2024-01-13T00:16:00,sdl,6.21
2024-01-13T00:17:00,sdl,6.13
2024-01-13T00:18:00,sdl,3.98
2024-01-13T00:19:00,sdl,3.92
2024-01-13T00:20:00,sdl,3.96
2024-01-13T00:21:00,sdl,3.96
2024-01-13T00:22:00,sdl,3.96
2024-01-13T00:23:00,sdl,4.44
2024-01-13T00:24:00,sdl,4.53
2024-01-13T00:25:00,sdl,4.50
2024-01-13T00:26:00,sdl,4.08
2024-01-13T00:27:00,sdl,4.02
2024-01-13T00:28:00,sdl,4.06
2024-01-13T00:29:00,sdl,4.03
2024-01-13T00:30:00,sdl,4.10
2024-01-13T00:31:00,sdl,4.35
2024-01-13T00:32:00,sdl,3.96
2024-01-13T00:33:00,sdl,4.08
2024-01-13T00:34:00,sdl,4.09
2024-01-13T00:35:00,sdl,5.51
2024-01-13T00:36:00,sdl,4.63
2024-01-13T00:37:00,sdl,5.53
2024-01-13T00:38:00,sdl,5.78
2024-01-13T00:39:00,sdl,5.52
2024-01-13T00:40:00,sdl,5.65
2024-01-13T00:41:00,sdl,4.76
2024-01-13T00:42:00,sdl,4.83
2024-01-13T00:43:00,sdl,4.82
2024-01-13T00:44:00,sdl,4.77
2024-01-13T00:45:00,sdl,4.70
2024-01-13T00:46:00,sdl,6.83
2024-01-13T00:47:00,sdl,6.98
2024-01-13T00:48:00,sdl,6.77
2024-01-13T00:49:00,sdl,6.84
2024-01-13T00:50:00,sdl,6.88
2024-01-13T00:51:00,sdl,6.84
2024-01-13T00:52:00,sdl,6.76
2024-01-13T00:53:00,sdl,6.89
2024-01-13T00:54:00,sdl,6.94
2024-01-13T00:55:00,sdl,7.00
2024-01-13T00:56:00,sdl,7.01
2024-01-13T00:57:00,sdl,6.97
2024-01-13T00:58:00,sdl,7.10
2024-01-13T00:59:00,sdl,7.29
2024-01-13T01:00:00,sdl,7.15
2024-01-13T01:01:00,sdl,7.21
2024-01-13T01:02:00,sdl,6.85
2024-01-13T01:03:00,sdl,4.64
2024-01-13T01:04:00,sdl,5.92
2024-01-13T01:05:00,sdl,5.88
2024-01-13T01:06:00,sdl,5.92
2024-01-13T01:07:00,sdl,5.89
2024-01-13T01:08:00,sdl,6.14
2024-01-13T01:09:00,sdl,5.68
2024-01-13T01:10:00,sdl,3.83
2024-01-13T01:11:00,sdl,3.75
2024-01-13T01:12:00,sdl,4.47
2024-01-13T01:13:00,sdl,3.77
2024-01-13T01:14:00,sdl,4.51
2024-01-13T01:15:00,sdl,3.67
2024-01-13T01:16:00,sdl,3.65
2024-01-13T01:17:00,sdl,3.62
2024-01-13T01:18:00,sdl,3.73
2024-01-13T01:19:00,sdl,3.65
2024-01-13T01:20:00,sdl,3.92
2024-01-13T01:21:00,sdl,3.68
2024-01-13T01:22:00,sdl,3.85
2024-01-13T01:23:00,sdl,4.32
2024-01-13T01:24:00,sdl,3.75
2024-01-13T01:25:00,sdl,3.71
2024-01-13T01:26:00,sdl,3.73
2024-01-13T01:27:00,sdl,4.38
2024-01-13T01:28:00,sdl,3.69
2024-01-13T01:29:00,sdl,3.63
2024-01-13T01:30:00,sdl,3.58
2024-01-13T01:31:00,sdl,3.56
2024-01-13T01:32:00,sdl,3.96
2024-01-13T01:33:00,sdl,3.35
2024-01-13T01:34:00,sdl,3.70
2024-01-13T01:35:00,sdl,3.71
2024-01-13T01:36:00,sdl,6.68
2024-01-13T01:37:00,sdl,5.68
2024-01-13T01:38:00,sdl,6.48
2024-01-13T01:39:00,sdl,5.73
2024-01-13T01:40:00,sdl,5.83
2024-01-13T01:41:00,sdl,6.35
2024-01-13T01:42:00,sdl,6.46
2024-01-13T01:43:00,sdl,5.75
2024-01-13T01:44:00,sdl,3.40
2024-01-13T01:45:00,sdl,3.38
2024-01-13T01:46:00,sdl,3.43
2024-01-13T01:47:00,sdl,3.39
2024-01-13T01:48:00,sdl,3.29
2024-01-13T01:49:00,sdl,3.28
2024-01-13T01:50:00,sdl,4.61
2024-01-13T01:51:00,sdl,5.27
2024-01-13T01:52:00,sdl,4.63
2024-01-13T01:53:00,sdl,4.60
2024-01-13T01:54:00,sdl,4.60
2024-01-13T01:55:00,sdl,5.20
2024-01-13T01:56:00,sdl,3.75
2024-01-13T01:57:00,sdl,3.64
2024-01-13T01:58:00,sdl,5.80
2024-01-13T01:59:00,sdl,6.46
2024-01-13T02:00:00,sdl,6.02
2024-01-13T02:01:00,sdl,5.98
2024-01-13T02:02:00,sdl,6.01
2024-01-13T02:03:00,sdl,6.05
2024-01-13T02:04:00,sdl,6.61
2024-01-13T02:05:00,sdl,6.41
2024-01-13T02:06:00,sdl,6.03
2024-01-13T02:07:00,sdl,6.24
2024-01-13T02:08:00,sdl,6.41
2024-01-13T02:09:00,sdl,6.07
2024-01-13T02:10:00,sdl,6.44
2024-01-13T02:11:00,sdl,6.21
2024-01-13T02:12:00,sdl,6.00
2024-01-13T02:13:00,sdl,6.08
2024-01-13T02:14:00,sdl,6.00
2024-01-13T02:15:00,sdl,3.71
2024-01-13T02:16:00,sdl,3.73
2024-01-13T02:17:00,sdl,3.72
2024-01-13T02:18:00,sdl,3.71
2024-01-13T02:19:00,sdl,3.99
2024-01-13T02:20:00,sdl,3.93
2024-01-13T02:21:00,sdl,4.20
2024-01-13T02:22:00,sdl,3.53
2024-01-13T02:23:00,sdl,3.68
2024-01-13T02:24:00,sdl,3.58
2024-01-13T02:25:00,sdl,3.60
2024-01-13T02:26:00,sdl,3.48
2024-01-13T02:27:00,sdl,4.12
2024-01-13T02:28:00,sdl,3.58
2024-01-13T02:29:00,sdl,3.62
2024-01-13T02:30:00,sdl,3.72
2024-01-13T02:31:00,sdl,3.59
2024-01-13T02:32:00,sdl,3.56
2024-01-13T02:33:00,sdl,3.52
2024-01-13T02:34:00,sdl,3.65
2024-01-13T02:35:00,sdl,3.66
2024-01-13T02:36:00,sdl,3.80
2024-01-13T02:37:00,sdl,3.79
2024-01-13T02:38:00,sdl,3.39
2024-01-13T02:39:00,sdl,3.99
2024-01-13T02:40:00,sdl,3.66
2024-01-13T02:41:00,sdl,4.22
2024-01-13T02:42:00,sdl,3.63
2024-01-13T02:43:00,sdl,3.68
2024-01-13T02:44:00,sdl,3.55
2024-01-13T02:45:00,sdl,3.59
2024-01-13T02:46:00,sdl,3.73
2024-01-13T02:47:00,sdl,3.70
2024-01-13T02:48:00,sdl,3.80
2024-01-13T02:49:00,sdl,4.46
2024-01-13T02:50:00,sdl,4.37
2024-01-13T02:51:00,sdl,3.92
2024-01-13T02:52:00,sdl,6.00
2024-01-13T02:53:00,sdl,6.69
2024-01-13T02:54:00,sdl,6.03
2024-01-13T02:55:00,sdl,5.88
2024-01-13T02:56:00,sdl,5.92
2024-01-13T02:57:00,sdl,5.86
2024-01-13T02:58:00,sdl,5.83
2024-01-13T02:59:00,sdl,5.96
2024-01-13T03:00:00,sdl,5.96
2024-01-13T03:01:00,sdl,6.95
2024-01-13T03:02:00,sdl,7.13
2024-01-13T03:03:00,sdl,7.09
2024-01-13T03:04:00,sdl,7.09
2024-01-13T03:05:00,sdl,4.86
2024-01-13T03:06:00,sdl,4.90
2024-01-13T03:07:00,sdl,4.05
2024-01-13T03:08:00,sdl,4.45
2024-01-13T03:09:00,sdl,4.40
2024-01-13T03:10:00,sdl,3.98
2024-01-13T03:11:00,sdl,3.90
2024-01-13T03:12:00,sdl,4.60
2024-01-13T03:13:00,sdl,3.94
2024-01-13T03:14:00,sdl,3.98
2024-01-13T03:15:00,sdl,4.34
2024-01-13T03:16:00,sdl,4.18
2024-01-13T03:17:00,sdl,4.41
2024-01-13T03:18:00,sdl,4.01
2024-01-13T03:19:00,sdl,4.52
2024-01-13T03:20:00,sdl,6.11
2024-01-13T03:21:00,sdl,6.00
2024-01-13T03:22:00,sdl,6.08
2024-01-13T03:23:00,sdl,5.96
2024-01-13T03:24:00,sdl,5.99
2024-01-13T03:25:00,sdl,6.11
2024-01-13T03:26:00,sdl,6.02
2024-01-13T03:27:00,sdl,6.11
2024-01-13T03:28:00,sdl,6.30
2024-01-13T03:29:00,sdl,6.08
2024-01-13T03:30:00,sdl,6.48
2024-01-13T03:31:00,sdl,3.98
2024-01-13T03:32:00,sdl,3.91
2024-01-13T03:33:00,sdl,4.00
2024-01-13T03:34:00,sdl,3.57
2024-01-13T03:35:00,sdl,3.62
2024-01-13T03:36:00,sdl,3.54
2024-01-13T03:37:00,sdl,3.52
2024-01-13T03:38:00,sdl,3.47
2024-01-13T03:39:00,sdl,4.25
2024-01-13T03:40:00,sdl,3.79
2024-01-13T03:41:00,sdl,3.82
2024-01-13T03:42:00,sdl,3.43
2024-01-13T03:43:00,sdl,3.50
2024-01-13T03:44:00,sdl,3.41
2024-01-13T03:45:00,sdl,3.43
2024-01-13T03:46:00,sdl,3.36
2024-01-13T03:47:00,sdl,3.38
2024-01-13T03:48:00,sdl,3.44
2024-01-13T03:49:00,sdl,3.56
2024-01-13T03:50:00,sdl,3.38
2024-01-13T03:51:00,sdl,3.27
2024-01-13T03:52:00,sdl,3.09
2024-01-13T03:53:00,sdl,3.15
2024-01-13T03:54:00,sdl,3.08
2024-01-13T03:55:00,sdl,3.20
2024-01-13T03:56:00,sdl,3.86
2024-01-13T03:57:00,sdl,3.17
2024-01-13T03:58:00,sdl,3.17
2024-01-13T03:59:00,sdl,3.20
2024-01-13T04:00:00,sdl,3.22
2024-01-13T04:01:00,sdl,5.52
2024-01-13T04:02:00,sdl,5.48
2024-01-13T04:03:00,sdl,5.45
2024-01-13T04:04:00,sdl,5.88
2024-01-13T04:05:00,sdl,5.42
2024-01-13T04:06:00,sdl,5.45
2024-01-13T04:07:00,sdl,5.35
2024-01-13T04:08:00,sdl,5.36
2024-01-13T04:09:00,sdl,5.37
2024-01-13T04:10:00,sdl,5.63
2024-01-13T04:11:00,sdl,5.51
2024-01-13T04:12:00,sdl,5.58
2024-01-13T04:13:00,sdl,5.48
2024-01-13T04:14:00,sdl,5.87
2024-01-13T04:15:00,sdl,6.76
2024-01-13T04:16:00,sdl,7.05
2024-01-13T04:17:00,sdl,4.74
2024-01-13T04:18:00,sdl,4.74
2024-01-13T04:19:00,sdl,4.72
2024-01-13T04:20:00,sdl,5.12
2024-01-13T04:21:00,sdl,5.05
2024-01-13T04:22:00,sdl,5.74
2024-01-13T04:23:00,sdl,5.23
2024-01-13T04:24:00,sdl,3.72
2024-01-13T04:25:00,sdl,3.65
2024-01-13T04:26:00,sdl,3.68
2024-01-13T04:27:00,sdl,3.66
2024-01-13T04:28:00,sdl,3.67
2024-01-13T04:29:00,sdl,3.72
2024-01-13T04:30:00,sdl,3.71
2024-01-13T04:31:00,sdl,3.80
2024-01-13T04:32:00,sdl,3.73
2024-01-13T04:33:00,sdl,3.69
2024-01-13T04:34:00,sdl,3.69
2024-01-13T04:35:00,sdl,3.70
2024-01-13T04:36:00,sdl,3.82
2024-01-13T04:37:00,sdl,3.73
2024-01-13T04:38:00,sdl,3.61
2024-01-13T04:39:00,sdl,3.61
2024-01-13T04:40:00,sdl,6.19
2024-01-13T04:41:00,sdl,6.21
2024-01-13T04:42:00,sdl,5.86
2024-01-13T04:43:00,sdl,5.88
2024-01-13T04:44:00,sdl,6.41
2024-01-13T04:45:00,sdl,6.05
2024-01-13T04:46:00,sdl,6.03
2024-01-13T04:47:00,sdl,5.73
2024-01-13T04:48:00,sdl,6.41
2024-01-13T04:49:00,sdl,3.70
2024-01-13T04:50:00,sdl,3.41
2024-01-13T04:51:00,sdl,3.50
2024-01-13T04:52:00,sdl,3.37
2024-01-13T04:53:00,sdl,3.51
2024-01-13T04:54:00,sdl,3.37
2024-01-13T04:55:00,sdl,3.40
2024-01-13T04:56:00,sdl,3.36
2024-01-13T04:57:00,sdl,3.36
2024-01-13T04:58:00,sdl,3.63
2024-01-13T04:59:00,sdl,3.80
2024-01-13T05:00:00,sdl,3.92
2024-01-13T05:01:00,sdl,3.83
2024-01-13T05:02:00,sdl,3.82
2024-01-13T05:03:00,sdl,3.79
2024-01-13T05:04:00,sdl,3.77
2024-01-13T05:05:00,sdl,3.89
2024-01-13T05:06:00,sdl,3.89
2024-01-13T05:07:00,sdl,3.88
2024-01-13T05:08:00,sdl,3.95
2024-01-13T05:09:00,sdl,6.21
2024-01-13T05:10:00,sdl,6.09
2024-01-13T05:11:00,sdl,6.10
2024-01-13T05:12:00,sdl,6.71
2024-01-13T05:13:00,sdl,5.69
2024-01-13T05:14:00,sdl,6.10
2024-01-13T05:15:00,sdl,6.49
2024-01-13T05:16:00,sdl,6.53
2024-01-13T05:17:00,sdl,6.55
2024-01-13T05:18:00,sdl,6.14
2024-01-13T05:19:00,sdl,6.09
2024-01-13T05:20:00,sdl,5.80
2024-01-13T05:21:00,sdl,5.57
2024-01-13T05:22:00,sdl,5.58
2024-01-13T05:23:00,sdl,5.62
2024-01-13T05:24:00,sdl,5.51
2024-01-13T05:25:00,sdl,5.50
2024-01-13T05:26:00,sdl,3.31
2024-01-13T05:27:00,sdl,4.13
2024-01-13T05:28:00,sdl,3.49
2024-01-13T05:29:00,sdl,3.53
2024-01-13T05:30:00,sdl,3.55
2024-01-13T05:31:00,sdl,3.58
2024-01-13T05:32:00,sdl,3.71
2024-01-13T05:33:00,sdl,3.46
2024-01-13T05:34:00,sdl,3.89
2024-01-13T05:35:00,sdl,3.44
2024-01-13T05:36:00,sdl,4.74
2024-01-13T05:37:00,sdl,4.74
2024-01-13T05:38:00,sdl,4.76
2024-01-13T05:39:00,sdl,4.58
2024-01-13T05:40:00,sdl,4.55
2024-01-13T05:41:00,sdl,5.19
2024-01-13T05:42:00,sdl,3.37
2024-01-13T05:43:00,sdl,4.04
2024-01-13T05:44:00,sdl,3.50
2024-01-13T05:45:00,sdl,3.29
2024-01-13T05:46:00,sdl,3.78
2024-01-13T05:47:00,sdl,3.34
2024-01-13T05:48:00,sdl,3.30
2024-01-13T05:49:00,sdl,4.02
2024-01-13T05:50:00,sdl,3.99
2024-01-13T05:51:00,sdl,3.77
2024-01-13T05:52:00,sdl,3.70
2024-01-13T05:53:00,sdl,3.65
2024-01-13T05:54:00,sdl,3.72
2024-01-13T05:55:00,sdl,3.70
2024-01-13T05:56:00,sdl,3.92
2024-01-13T05:57:00,sdl,3.76
2024-01-13T05:58:00,sdl,4.38
2024-01-13T05:59:00,sdl,3.70
2024-01-13T06:00:00,sdl,3.75
2024-01-13T06:01:00,sdl,3.94
2024-01-13T06:02:00,sdl,3.70
2024-01-13T06:03:00,sdl,5.78
2024-01-13T06:04:00,sdl,5.75
2024-01-13T06:05:00,sdl,5.52
2024-01-13T06:06:00,sdl,5.64
2024-01-13T06:07:00,sdl,6.28
2024-01-13T06:08:00,sdl,6.52
2024-01-13T06:09:00,sdl,6.03
2024-01-13T06:10:00,sdl,6.03
2024-01-13T06:11:00,sdl,6.13
2024-01-13T06:12:00,sdl,6.73
2024-01-13T06:13:00,sdl,6.10
2024-01-13T06:14:00,sdl,6.14
2024-01-13T06:15:00,sdl,6.17
2024-01-13T06:16:00,sdl,4.00
2024-01-13T06:17:00,sdl,4.07
2024-01-13T06:18:00,sdl,4.11
2024-01-13T06:19:00,sdl,4.20
2024-01-13T06:20:00,sdl,3.85
2024-01-13T06:21:00,sdl,3.87
2024-01-13T06:22:00,sdl,3.92
2024-01-13T06:23:00,sdl,3.96
2024-01-13T06:24:00,sdl,3.92
2024-01-13T06:25:00,sdl,4.15
2024-01-13T06:26:00,sdl,4.16
2024-01-13T06:27:00,sdl,3.81
2024-01-13T06:28:00,sdl,3.95
2024-01-13T06:29:00,sdl,3.64
2024-01-13T06:30:00,sdl,5.88
2024-01-13T06:31:00,sdl,5.79
2024-01-13T06:32:00,sdl,6.05
2024-01-13T06:33:00,sdl,5.76
2024-01-13T06:34:00,sdl,7.17
2024-01-13T06:35:00,sdl,5.49
2024-01-13T06:36:00,sdl,5.49
2024-01-13T06:37:00,sdl,5.64
2024-01-13T06:38:00,sdl,5.56
2024-01-13T06:39:00,sdl,6.31
2024-01-13T06:40:00,sdl,5.74
2024-01-13T06:41:00,sdl,6.90
2024-01-13T06:42:00,sdl,6.80
2024-01-13T06:43:00,sdl,4.66
2024-01-13T06:44:00,sdl,4.72
2024-01-13T06:45:00,sdl,4.71
2024-01-13T06:46:00,sdl,4.61
2024-01-13T06:47:00,sdl,4.64
2024-01-13T06:48:00,sdl,4.67
2024-01-13T06:49:00,sdl,4.65
2024-01-13T06:50:00,sdl,3.30
2024-01-13T06:51:00,sdl,3.28
2024-01-13T06:52:00,sdl,3.36
2024-01-13T06:53:00,sdl,3.22
2024-01-13T06:54:00,sdl,3.29
2024-01-13T06:55:00,sdl,3.49
2024-01-13T06:56:00,sdl,3.55
2024-01-13T06:57:00,sdl,3.23
2024-01-13T06:58:00,sdl,3.25
2024-01-13T06:59:00,sdl,3.26
2024-01-13T07:00:00,sdl,3.27
2024-01-13T07:01:00,sdl,3.21
2024-01-13T07:02:00,sdl,3.34
2024-01-13T07:03:00,sdl,3.25
2024-01-13T07:04:00,sdl,3.86
2024-01-13T07:05:00,sdl,3.52
2024-01-13T07:06:00,sdl,3.37
2024-01-13T07:07:00,sdl,3.36
2024-01-13T07:08:00,sdl,3.44
2024-01-13T07:09:00,sdl,3.42
2024-01-13T07:10:00,sdl,3.38
2024-01-13T07:11:00,sdl,3.31
2024-01-13T07:12:00,sdl,5.46
2024-01-13T07:13:00,sdl,5.37
2024-01-13T07:14:00,sdl,5.37
2024-01-13T07:15:00,sdl,5.31
2024-01-13T07:16:00,sdl,5.28
2024-01-13T07:17:00,sdl,6.06
2024-01-13T07:18:00,sdl,5.43
2024-01-13T07:19:00,sdl,5.90
2024-01-13T07:20:00,sdl,5.35
2024-01-13T07:21:00,sdl,5.29
2024-01-13T07:22:00,sdl,5.85
2024-01-13T07:23:00,sdl,7.12
2024-01-13T07:24:00,sdl,6.44
2024-01-13T07:25:00,sdl,6.13
2024-01-13T07:26:00,sdl,6.06
2024-01-13T07:27:00,sdl,6.78
2024-01-13T07:28:00,sdl,6.30
2024-01-13T07:29:00,sdl,6.37
2024-01-13T07:30:00,sdl,6.08
2024-01-13T07:31:00,sdl,3.91
2024-01-13T07:32:00,sdl,3.93
2024-01-13T07:33:00,sdl,3.90
2024-01-13T07:34:00,sdl,4.01
2024-01-13T07:35:00,sdl,3.80
2024-01-13T07:36:00,sdl,3.79
2024-01-13T07:37:00,sdl,4.22
2024-01-13T07:38:00,sdl,4.29
2024-01-13T07:39:00,sdl,3.88
2024-01-13T07:40:00,sdl,3.72
2024-01-13T07:41:00,sdl,3.60
2024-01-13T07:42:00,sdl,3.60
2024-01-13T07:43:00,sdl,3.62
2024-01-13T07:44:00,sdl,3.60
2024-01-13T07:45:00,sdl,3.54
2024-01-13T07:46:00,sdl,3.56
2024-01-13T07:47:00,sdl,3.73
2024-01-13T07:48:00,sdl,3.84
2024-01-13T07:49:00,sdl,3.87
2024-01-13T07:50:00,sdl,3.34
2024-01-13T07:51:00,sdl,3.67
2024-01-13T07:52:00,sdl,3.37
2024-01-13T07:53:00,sdl,4.07
2024-01-13T07:54:00,sdl,3.39
2024-01-13T07:55:00,sdl,3.48
2024-01-13T07:56:00,sdl,3.85
2024-01-13T07:57:00,sdl,3.80
2024-01-13T07:58:00,sdl,3.30
2024-01-13T07:59:00,sdl,3.34
2024-01-13T08:00:00,sdl,3.45
2024-01-13T08:01:00,sdl,3.27
2024-01-13T08:02:00,sdl,3.14
2024-01-13T08:03:00,sdl,3.17
2024-01-13T08:04:00,sdl,3.28
2024-01-13T08:05:00,sdl,3.09
2024-01-13T08:06:00,sdl,3.18
2024-01-13T08:07:00,sdl,3.19
2024-01-13T08:08:00,sdl,3.20
2024-01-13T08:09:00,sdl,3.30
2024-01-13T08:10:00,sdl,5.62
2024-01-13T08:11:00,sdl,5.36
2024-01-13T08:12:00,sdl,5.50
2024-01-13T08:13:00,sdl,5.43
2024-01-13T08:14:00,sdl,5.46
2024-01-13T08:15:00,sdl,5.72
2024-01-13T08:16:00,sdl,5.44
2024-01-13T08:17:00,sdl,5.44
2024-01-13T08:18:00,sdl,5.47
2024-01-13T08:19:00,sdl,5.44
2024-01-13T08:20:00,sdl,5.91
2024-01-13T08:21:00,sdl,5.49
2024-01-13T08:22:00,sdl,5.55
2024-01-13T08:23:00,sdl,6.35
2024-01-13T08:24:00,sdl,4.70
2024-01-13T08:25:00,sdl,4.52
2024-01-13T08:26:00,sdl,4.84
2024-01-13T08:27:00,sdl,4.85
2024-01-13T08:28:00,sdl,4.45
2024-01-13T08:29:00,sdl,4.46
2024-01-13T08:30:00,sdl,4.48
2024-01-13T08:31:00,sdl,3.24
2024-01-13T08:32:00,sdl,3.22
2024-01-13T08:33:00,sdl,3.35
2024-01-13T08:34:00,sdl,3.34
2024-01-13T08:35:00,sdl,3.50
2024-01-13T08:36:00,sdl,3.80
2024-01-13T08:37:00,sdl,3.46
2024-01-13T08:38:00,sdl,6.03
2024-01-13T08:39:00,sdl,6.02
2024-01-13T08:40:00,sdl,6.02
2024-01-13T08:41:00,sdl,6.15
2024-01-13T08:42:00,sdl,5.91
2024-01-13T08:43:00,sdl,5.93
2024-01-13T08:44:00,sdl,5.92
2024-01-13T08:45:00,sdl,5.89
2024-01-13T08:46:00,sdl,5.88
2024-01-13T08:47:00,sdl,5.89
2024-01-13T08:48:00,sdl,6.01
2024-01-13T08:49:00,sdl,5.84
2024-01-13T08:50:00,sdl,4.19
2024-01-13T08:51:00,sdl,3.77
2024-01-13T08:52:00,sdl,3.77
2024-01-13T08:53:00,sdl,3.79
2024-01-13T08:54:00,sdl,4.11
2024-01-13T08:55:00,sdl,4.15
2024-01-13T08:56:00,sdl,4.19
2024-01-13T08:57:00,sdl,3.89
2024-01-13T08:58:00,sdl,3.93
2024-01-13T08:59:00,sdl,4.45
2024-01-13T09:00:00,sdl,4.05
2024-01-13T09:01:00,sdl,3.89
2024-01-13T09:02:00,sdl,3.91
2024-01-13T09:03:00,sdl,3.95
2024-01-13T09:04:00,sdl,3.89
2024-01-13T09:05:00,sdl,3.91
2024-01-13T09:06:00,sdl,4.35
2024-01-13T09:07:00,sdl,3.61
2024-01-13T09:08:00,sdl,3.93
2024-01-13T09:09:00,sdl,3.57
2024-01-13T09:10:00,sdl,3.53
2024-01-13T09:11:00,sdl,4.06
2024-01-13T09:12:00,sdl,3.39
2024-01-13T09:13:00,sdl,3.39
2024-01-13T09:14:00,sdl,3.42
2024-01-13T09:15:00,sdl,3.36
2024-01-13T09:16:00,sdl,3.39
2024-01-13T09:17:00,sdl,3.31
2024-01-13T09:18:00,sdl,4.24
2024-01-13T09:19:00,sdl,3.36
2024-01-13T09:20:00,sdl,3.53
2024-01-13T09:21:00,sdl,3.49
2024-01-13T09:22:00,sdl,3.53
2024-01-13T09:23:00,sdl,5.61
2024-01-13T09:24:00,sdl,5.50
2024-01-13T09:25:00,sdl,5.52
2024-01-13T09:26:00,sdl,6.15
2024-01-13T09:27:00,sdl,5.85
2024-01-13T09:28:00,sdl,5.83
2024-01-13T09:29:00,sdl,5.36
2024-01-13T09:30:00,sdl,5.37
2024-01-13T09:31:00,sdl,5.42
2024-01-13T09:32:00,sdl,5.61
2024-01-13T09:33:00,sdl,5.53
2024-01-13T09:34:00,sdl,5.50
2024-01-13T09:35:00,sdl,5.49
2024-01-13T09:36:00,sdl,5.58
2024-01-13T09:37:00,sdl,5.56
2024-01-13T09:38:00,sdl,5.44
2024-01-13T09:39:00,sdl,5.45
2024-01-13T09:40:00,sdl,5.52
2024-01-13T09:41:00,sdl,5.38
2024-01-13T09:42:00,sdl,3.37
2024-01-13T09:43:00,sdl,3.40
2024-01-13T09:44:00,sdl,3.19
2024-01-13T09:45:00,sdl,3.31
2024-01-13T09:46:00,sdl,3.30
2024-01-13T09:47:00,sdl,3.21
2024-01-13T09:48:00,sdl,3.25
2024-01-13T09:49:00,sdl,3.29
2024-01-13T09:50:00,sdl,3.74
2024-01-13T09:51:00,sdl,3.37
2024-01-13T09:52:00,sdl,3.37
2024-01-13T09:53:00,sdl,3.92
2024-01-13T09:54:00,sdl,3.76
2024-01-13T09:55:00,sdl,4.63
2024-01-13T09:56:00,sdl,4.04
2024-01-13T09:57:00,sdl,4.18
2024-01-13T09:58:00,sdl,3.78
2024-01-13T09:59:00,sdl,3.94
2024-01-13T10:00:00,sdl,3.65
2024-01-13T10:01:00,sdl,3.60
2024-01-13T10:02:00,sdl,3.62
2024-01-13T10:03:00,sdl,4.90
2024-01-13T10:04:00,sdl,4.88
2024-01-13T10:05:00,sdl,4.87
2024-01-13T10:06:00,sdl,5.24
2024-01-13T10:07:00,sdl,5.06
2024-01-13T10:08:00,sdl,4.96
2024-01-13T10:09:00,sdl,5.33
2024-01-13T10:10:00,sdl,5.27
2024-01-13T10:11:00,sdl,3.75
2024-01-13T10:12:00,sdl,4.05
2024-01-13T10:13:00,sdl,3.82
2024-01-13T10:14:00,sdl,3.83
2024-01-13T10:15:00,sdl,3.75
2024-01-13T10:16:00,sdl,3.70
2024-01-13T10:17:00,sdl,3.69
2024-01-13T10:18:00,sdl,3.95
2024-01-13T10:19:00,sdl,3.77
2024-01-13T10:20:00,sdl,5.95
2024-01-13T10:21:00,sdl,6.95
2024-01-13T10:22:00,sdl,5.94
2024-01-13T10:23:00,sdl,6.46
2024-01-13T10:24:00,sdl,5.47
2024-01-13T10:25:00,sdl,6.12
2024-01-13T10:26:00,sdl,5.42
2024-01-13T10:27:00,sdl,5.68
2024-01-13T10:28:00,sdl,5.56
2024-01-13T10:29:00,sdl,5.54
2024-01-13T10:30:00,sdl,5.46
2024-01-13T10:31:00,sdl,5.41
2024-01-13T10:32:00,sdl,3.43
2024-01-13T10:33:00,sdl,3.47
2024-01-13T10:34:00,sdl,3.47
2024-01-13T10:35:00,sdl,4.27
2024-01-13T10:36:00,sdl,4.24
2024-01-13T10:37:00,sdl,4.86
2024-01-13T10:38:00,sdl,4.19
2024-01-13T10:39:00,sdl,4.14
2024-01-13T10:40:00,sdl,3.40
2024-01-13T10:41:00,sdl,3.36
2024-01-13T10:42:00,sdl,3.54
2024-01-13T10:43:00,sdl,3.36
2024-01-13T10:44:00,sdl,3.35
2024-01-13T10:45:00,sdl,3.14
2024-01-13T10:46:00,sdl,3.37
2024-01-13T10:47:00,sdl,5.46
2024-01-13T10:48:00,sdl,5.50
2024-01-13T10:49:00,sdl,5.64
2024-01-13T10:50:00,sdl,5.52
2024-01-13T10:51:00,sdl,5.67
2024-01-13T10:52:00,sdl,6.35
2024-01-13T10:53:00,sdl,5.51
2024-01-13T10:54:00,sdl,6.14
2024-01-13T10:55:00,sdl,5.52
2024-01-13T10:56:00,sdl,5.51
2024-01-13T10:57:00,sdl,5.84
2024-01-13T10:58:00,sdl,5.85
2024-01-13T10:59:00,sdl,5.50
2024-01-13T11:00:00,sdl,3.36
2024-01-13T11:01:00,sdl,3.39
2024-01-13T11:02:00,sdl,3.66
2024-01-13T11:03:00,sdl,3.65
2024-01-13T11:04:00,sdl,3.35
2024-01-13T11:05:00,sdl,3.38
2024-01-13T11:06:00,sdl,3.33
2024-01-13T11:07:00,sdl,3.38
2024-01-13T11:08:00,sdl,3.34
2024-01-13T11:09:00,sdl,3.39
2024-01-13T11:10:00,sdl,3.74
2024-01-13T11:11:00,sdl,3.39
2024-01-13T11:12:00,sdl,3.86
2024-01-13T11:13:00,sdl,3.95
2024-01-13T11:14:00,sdl,3.79
2024-01-13T11:15:00,sdl,3.80
2024-01-13T11:16:00,sdl,3.72
2024-01-13T11:17:00,sdl,4.54
2024-01-13T11:18:00,sdl,4.74
2024-01-13T11:19:00,sdl,5.73
2024-01-13T11:20:00,sdl,5.69
2024-01-13T11:21:00,sdl,4.89
2024-01-13T11:22:00,sdl,4.94
2024-01-13T11:23:00,sdl,5.29
2024-01-13T11:24:00,sdl,5.27
2024-01-13T11:25:00,sdl,4.89
2024-01-13T11:26:00,sdl,3.85
2024-01-13T11:27:00,sdl,3.77
2024-01-13T11:28:00,sdl,4.14
2024-01-13T11:29:00,sdl,3.67
2024-01-13T11:30:00,sdl,3.67
2024-01-13T11:31:00,sdl,3.56
2024-01-13T11:32:00,sdl,3.63
2024-01-13T11:33:00,sdl,3.64
2024-01-13T11:34:00,sdl,5.76
2024-01-13T11:35:00,sdl,5.95
2024-01-13T11:36:00,sdl,5.79
2024-01-13T11:37:00,sdl,5.87
2024-01-13T11:38:00,sdl,5.81
2024-01-13T11:39:00,sdl,5.94
2024-01-13T11:40:00,sdl,5.39
2024-01-13T11:41:00,sdl,5.36
2024-01-13T11:42:00,sdl,5.48
2024-01-13T11:43:00,sdl,5.43
2024-01-13T11:44:00,sdl,5.35
2024-01-13T11:45:00,sdl,5.42
2024-01-13T11:46:00,sdl,5.42
2024-01-13T11:47:00,sdl,5.39
2024-01-13T11:48:00,sdl,5.45
2024-01-13T11:49:00,sdl,5.45
2024-01-13T11:50:00,sdl,6.09
2024-01-13T11:51:00,sdl,6.28
2024-01-13T11:52:00,sdl,3.54
2024-01-13T11:53:00,sdl,3.26
2024-01-13T11:54:00,sdl,3.26
2024-01-13T11:55:00,sdl,3.23
2024-01-13T11:56:00,sdl,3.24
2024-01-13T11:57:00,sdl,3.23
2024-01-13T11:58:00,sdl,3.19
2024-01-13T11:59:00,sdl,3.91
2024-01-13T12:00:00,sdl,3.81
2024-01-13T12:01:00,sdl,4.10
2024-01-13T12:02:00,sdl,4.05
2024-01-13T12:03:00,sdl,3.94
2024-01-13T12:04:00,sdl,3.24
2024-01-13T12:05:00,sdl,3.39
2024-01-13T12:06:00,sdl,3.34
2024-01-13T12:07:00,sdl,3.30
2024-01-13T12:08:00,sdl,3.34
2024-01-13T12:09:00,sdl,3.33
2024-01-13T12:10:00,sdl,3.50
2024-01-13T12:11:00,sdl,3.59
2024-01-13T12:12:00,sdl,4.06
2024-01-13T12:13:00,sdl,3.76
2024-01-13T12:14:00,sdl,3.43
2024-01-13T12:15:00,sdl,3.55
2024-01-13T12:16:00,sdl,3.52
2024-01-13T12:17:00,sdl,3.44
2024-01-13T12:18:00,sdl,3.38
2024-01-13T12:19:00,sdl,3.74
2024-01-13T12:20:00,sdl,3.81
2024-01-13T12:21:00,sdl,4.76
2024-01-13T12:22:00,sdl,4.51
2024-01-13T12:23:00,sdl,6.68
2024-01-13T12:24:00,sdl,6.79
2024-01-13T12:25:00,sdl,6.76
2024-01-13T12:26:00,sdl,7.14
2024-01-13T12:27:00,sdl,6.72
2024-01-13T12:28:00,sdl,6.00
2024-01-13T12:29:00,sdl,6.16
2024-01-13T12:30:00,sdl,6.11
2024-01-13T12:31:00,sdl,6.19
2024-01-13T12:32:00,sdl,6.10
2024-01-13T12:33:00,sdl,3.99
2024-01-13T12:34:00,sdl,3.89
2024-01-13T12:35:00,sdl,3.85
2024-01-13T12:36:00,sdl,4.21
2024-01-13T12:37:00,sdl,4.49
2024-01-13T12:38:00,sdl,3.85
2024-01-13T12:39:00,sdl,3.91
2024-01-13T12:40:00,sdl,3.77
2024-01-13T12:41:00,sdl,3.89
2024-01-13T12:42:00,sdl,3.90
2024-01-13T12:43:00,sdl,3.89
2024-01-13T12:44:00,sdl,3.86
2024-01-13T12:45:00,sdl,4.28
2024-01-13T12:46:00,sdl,6.07
2024-01-13T12:47:00,sdl,6.65
2024-01-13T12:48:00,sdl,6.80
2024-01-13T12:49:00,sdl,6.66
2024-01-13T12:50:00,sdl,6.69
2024-01-13T12:51:00,sdl,6.21
2024-01-13T12:52:00,sdl,5.88
2024-01-13T12:53:00,sdl,5.59
2024-01-13T12:54:00,sdl,5.41
2024-01-13T12:55:00,sdl,5.43
2024-01-13T12:56:00,sdl,5.46
2024-01-13T12:57:00,sdl,5.35
2024-01-13T12:58:00,sdl,5.56
2024-01-13T12:59:00,sdl,5.64
2024-01-13T13:00:00,sdl,5.50
2024-01-13T13:01:00,sdl,5.54
2024-01-13T13:02:00,sdl,5.41
2024-01-13T13:03:00,sdl,5.29
2024-01-13T13:04:00,sdl,3.14
2024-01-13T13:05:00,sdl,3.12
2024-01-13T13:06:00,sdl,2.95
2024-01-13T13:07:00,sdl,3.42
2024-01-13T13:08:00,sdl,3.44
2024-01-13T13:09:00,sdl,3.69
2024-01-13T13:10:00,sdl,3.52
2024-01-13T13:11:00,sdl,3.53
2024-01-13T13:12:00,sdl,3.57
2024-01-13T13:13:00,sdl,3.69
2024-01-13T13:14:00,sdl,4.67
2024-01-13T13:15:00,sdl,3.81
2024-01-13T13:16:00,sdl,3.57
2024-01-13T13:17:00,sdl,3.69
2024-01-13T13:18:00,sdl,4.91
2024-01-13T13:19:00,sdl,4.85
2024-01-13T13:20:00,sdl,4.76
2024-01-13T13:21:00,sdl,5.39
2024-01-13T13:22:00,sdl,5.48
2024-01-13T13:23:00,sdl,4.85
2024-01-13T13:24:00,sdl,4.86
2024-01-13T13:25:00,sdl,3.62
2024-01-13T13:26:00,sdl,3.61
2024-01-13T13:27:00,sdl,4.72
2024-01-13T13:28:00,sdl,3.71
2024-01-13T13:29:00,sdl,4.75
2024-01-13T13:30:00,sdl,4.32
2024-01-13T13:31:00,sdl,4.20
2024-01-13T13:32:00,sdl,4.18
2024-01-13T13:33:00,sdl,3.47
2024-01-13T13:34:00,sdl,3.58
2024-01-13T13:35:00,sdl,3.60
2024-01-13T13:36:00,sdl,3.38
2024-01-13T13:37:00,sdl,3.36
2024-01-13T13:38:00,sdl,3.37
2024-01-13T13:39:00,sdl,3.50
2024-01-13T13:40:00,sdl,4.09
2024-01-13T13:41:00,sdl,3.51
2024-01-13T13:42:00,sdl,3.44
2024-01-13T13:43:00,sdl,3.61
2024-01-13T13:44:00,sdl,3.62
2024-01-13T13:45:00,sdl,5.82